Location: Burbank
(38.7788°N, 114.0429°W)
Time: 20:52:04
(UTC+00:00)

S-56A Canister/Altair - Pass Details

Date: 10 May 2026
Orbit: 632 x 2484 km, 38.9° (Epoch: 8 June)

Event Time Altitude Azimuth Distance (km) Brightness Sun altitude
Rises 05:09:24 0° 233° (SW) 2,916 10.5 -24.4°
Enters shadow 05:10:53 - 229° (SW) 2,324 10.0 -24.6°
Reaches altitude 10° 05:11:43 10° 226° (SW) 2,003 - -24.7°
Maximum altitude 05:15:54 42° 154° (SSE) 948 - -25.1°
Drops below altitude 10° 05:20:48 10° 84° (E) 2,348 - -25.7°
Sets 05:23:42 0° 78° (ENE) 3,492 - -26.0°
